Theta_e
349 348 348 349 350 349 349 348 347 348 348 348 346 344 347 348 348 349 348 347 348 347 346 346 345 345 344 344 344 344 344 345 346 346 343 336 332 333 332 331 331 331 331 331 331 331 332 333 334 336 337 338 338 338 338 337 336 337 337 337 336 336 335 334 331 326 322 320 320 320 320 320 319 319 320 322 323 323 324 324 324 324 324 324 324
349 348 348 351 351 350 349 348 349 349 349 350 349 349 349 350 349 349 349 348 349 348 347 346 345 346 346 345 345 345 345 345 345 346 347 341 335 335 335 335 335 335 335 335 335 335 335 336 337 338 338 337 338 338 337 336 335 335 336 334 333 334 332 329 326 322 321 321 321 321 321 321 321 321 322 323 323 324 325 325 325 325 325 325 325
348 347 349 351 350 350 350 348 349 349 348 350 350 350 350 351 351 351 350 350 349 348 347 345 346 346 346 346 345 346 346 346 346 345 347 345 339 335 335 335 335 336 336 336 336 336 336 336 337 337 336 336 335 335 336 336 334 333 333 332 331 330 328 325 323 321 321 321 321 322 322 322 323 323 323 324 325 325 325 326 326 326 326 326 326
347 348 350 352 350 351 351 350 350 349 349 350 350 349 349 349 351 352 351 350 350 349 348 347 346 346 346 347 347 348 347 346 345 345 345 346 344 340 336 334 334 334 334 334 334 334 334 335 334 334 333 332 332 332 333 334 331 329 328 327 327 326 324 322 321 321 322 322 323 323 324 324 324 324 325 325 325 325 325 326 325 325 325 325 325
344 349 352 352 352 352 351 352 351 348 347 350 350 349 350 349 350 352 351 350 350 349 349 348 347 347 346 346 348 348 348 347 345 345 344 345 346 345 341 338 337 335 333 332 332 332 332 331 331 331 330 329 329 329 329 329 327 324 323 323 322 322 322 322 322 323 323 324 324 325 325 325 325 325 325 325 325 325 325 324 325 324 324 324 324
343 349 352 351 352 352 350 352 351 347 346 349 349 348 350 351 350 350 350 349 350 350 348 348 347 347 345 345 347 347 347 347 345 346 346 345 346 347 346 344 341 339 337 335 334 334 333 331 330 328 327 326 326 326 325 324 323 322 321 321 321 322 322 323 323 324 324 325 325 325 325 325 324 324 324 324 324 324 324 324 324 324 324 323 323
342 348 352 351 351 352 352 350 350 350 348 350 350 349 350 351 350 349 350 349 349 350 350 348 347 346 346 346 347 347 347 347 346 346 346 347 347 347 347 347 345 343 342 339 334 332 333 332 329 327 325 325 324 324 324 323 322 322 322 322 322 323 323 324 324 324 325 325 325 325 325 325 325 325 325 324 325 324 324 324 324 324 324 324 324
342 347 353 352 351 353 352 348 350 351 348 350 353 351 350 350 351 350 350 350 348 350 350 349 348 347 346 346 347 348 348 348 348 347 347 347 346 345 346 346 345 343 343 342 337 331 329 329 327 325 324 324 324 324 323 323 323 323 323 323 323 323 324 325 325 325 325 325 326 326 326 326 326 326 325 325 326 325 325 325 325 325 325 325 325
343 346 353 354 352 354 351 347 351 350 347 352 353 352 351 349 350 352 352 351 348 348 349 349 348 347 346 346 347 348 348 348 347 347 347 347 345 345 345 342 342 343 345 346 343 335 329 327 326 325 324 325 324 325 324 324 324 325 325 325 325 326 326 326 326 326 327 327 326 327 326 327 326 326 326 326 326 327 327 327 327 327 327 327 327
343 344 352 353 351 353 350 347 349 347 348 353 353 353 354 352 350 350 352 353 351 348 348 348 347 347 345 345 347 347 347 347 347 347 346 345 344 344 344 343 343 344 344 345 344 340 334 329 328 327 325 325 325 325 326 326 326 327 327 327 327 328 328 328 328 327 327 327 327 327 327 327 327 327 328 329 330 331 331 332 333 333 333 334 333
343 344 350 352 351 353 349 347 348 348 352 354 353 351 350 350 350 349 350 352 352 351 348 347 347 346 346 345 346 347 347 346 346 346 344 343 344 345 344 344 345 343 342 344 345 344 338 332 336 336 329 325 327 327 327 327 328 328 328 328 328 328 328 328 328 328 328 328 328 328 328 328 329 330 331 332 335 336 338 339 340 340 341 341 341
344 343 347 351 353 352 348 348 350 349 352 355 355 350 345 345 348 348 351 352 351 351 349 348 347 345 345 345 346 346 345 346 345 344 343 342 344 345 343 343 345 344 344 345 346 345 337 332 342 347 339 329 327 328 328 328 328 329 328 328 329 328 328 328 328 328 328 328 329 329 329 330 331 332 334 336 339 340 342 343 344 345 346 346 346
344 344 345 348 351 350 346 347 351 349 349 353 351 346 342 343 344 346 350 353 352 350 348 349 347 345 345 344 344 345 343 344 345 343 344 342 343 344 342 342 343 343 343 342 344 345 340 338 346 351 344 335 332 329 328 329 328 328 329 328 329 329 329 329 329 329 329 330 331 332 333 334 336 338 339 341 342 343 344 345 346 347 347 347 348
345 345 345 346 348 348 343 344 350 348 344 346 344 341 343 344 345 348 350 353 354 350 348 349 348 345 345 344 343 344 343 345 344 343 344 343 342 342 342 344 344 343 343 343 344 345 345 347 348 347 339 338 343 337 329 330 329 329 329 329 329 329 329 329 330 331 333 334 335 337 339 340 341 342 343 344 344 345 346 346 347 348 348 348 349
345 345 345 346 348 349 348 345 346 346 344 344 344 343 342 342 349 353 352 352 352 350 348 349 348 344 344 344 343 344 345 345 344 343 343 343 342 340 342 343 342 343 344 345 346 345 347 347 343 338 331 336 345 344 343 340 330 329 330 329 330 329 330 332 334 337 338 339 341 341 342 343 344 344 344 345 345 346 347 347 348 348 349 349 350
346 346 348 346 345 351 353 348 344 344 343 343 345 345 344 347 351 351 352 352 351 350 349 348 348 347 346 344 343 345 346 344 343 343 342 342 342 340 341 343 341 344 346 346 346 344 347 345 338 333 330 331 335 340 349 346 331 329 330 329 330 332 335 338 338 339 340 340 341 341 342 343 343 343 344 345 346 347 347 348 348 349 350 351 352
347 348 353 347 344 350 350 347 345 343 345 347 350 351 350 351 349 347 353 354 351 350 350 349 348 347 348 346 345 346 346 345 344 344 344 341 340 338 341 343 340 343 346 344 343 343 347 345 339 335 331 332 335 338 348 346 333 329 330 331 336 337 339 339 337 337 337 337 338 338 339 340 342 343 343 345 346 347 347 348 349 350 351 352 353
349 349 354 347 343 346 345 349 350 344 347 352 352 350 350 352 349 349 354 353 352 353 350 350 349 347 348 348 348 349 348 348 345 345 345 342 340 339 341 342 339 341 344 342 344 345 346 345 344 345 342 342 344 344 349 347 335 331 335 338 340 340 339 336 334 335 334 334 335 336 337 339 341 343 344 345 346 348 349 350 350 351 352 352 353
352 349 350 346 344 344 343 351 354 349 346 349 351 350 351 354 353 353 355 351 351 354 352 351 350 349 350 349 349 349 349 349 347 345 345 343 342 341 340 341 340 342 344 343 345 344 344 345 345 349 348 346 346 346 350 350 341 337 340 342 341 340 337 333 332 332 332 334 337 339 341 342 344 346 347 348 348 349 350 350 351 351 350 349 348
355 348 346 345 344 345 345 347 353 354 348 349 353 353 352 352 350 350 350 346 347 350 352 351 351 352 351 350 349 348 347 348 347 346 345 343 343 342 341 341 341 342 343 343 344 343 343 345 345 347 347 345 345 347 350 351 348 344 341 341 340 336 332 330 330 331 332 335 338 341 344 345 347 347 348 349 349 349 350 350 349 345 341 339 337
353 347 344 346 343 344 345 343 349 353 350 353 355 352 351 348 345 345 345 346 346 347 350 351 352 352 350 351 351 348 347 347 346 346 346 345 343 342 341 342 342 342 344 344 343 344 345 344 344 345 348 348 347 349 350 350 350 349 343 338 336 332 330 329 329 330 331 334 337 340 343 344 345 347 348 349 348 349 349 345 340 334 330 329 330
349 345 342 344 344 345 345 343 348 352 351 355 356 351 348 343 344 348 347 349 348 346 349 351 352 353 352 353 353 350 350 347 345 347 346 345 344 342 341 342 342 341 344 346 345 345 346 345 345 346 349 350 350 352 351 347 345 347 342 334 331 329 329 328 327 328 329 331 334 337 340 342 344 346 346 347 349 348 344 337 332 328 326 327 329
351 347 344 346 345 344 347 350 351 353 352 354 355 353 350 349 350 348 345 347 348 347 351 352 351 353 353 353 352 351 351 349 348 348 346 345 346 345 343 342 343 342 343 344 345 345 346 346 348 348 349 351 352 351 348 342 340 342 337 331 330 329 328 327 326 327 328 330 333 335 339 342 344 346 346 348 349 344 338 336 336 331 325 325 328
355 352 349 351 348 341 349 355 353 354 353 352 356 355 354 355 353 350 347 345 344 347 352 355 353 352 351 351 352 351 350 350 348 348 347 348 347 347 345 343 342 344 343 341 344 346 346 348 350 350 352 353 350 346 348 347 341 338 334 330 330 327 327 327 325 326 328 329 332 334 337 341 344 346 348 349 345 340 340 344 344 336 327 324 326
355 355 353 354 350 342 347 352 349 350 350 351 355 355 354 356 351 351 352 349 347 347 350 356 357 354 353 352 351 351 350 350 349 348 348 348 347 347 348 344 341 343 344 343 345 346 346 349 351 351 352 354 352 345 349 354 348 338 334 331 330 329 327 327 326 325 327 329 332 334 338 342 346 348 349 348 343 340 345 348 346 339 328 323 324
354 356 355 355 354 347 344 346 345 345 345 347 349 348 351 356 351 349 353 352 351 351 350 356 357 354 355 354 352 352 351 351 350 349 349 347 347 348 350 348 344 343 345 344 344 346 347 348 349 351 351 352 353 347 342 352 353 338 332 332 331 330 329 327 326 325 326 329 332 334 338 343 347 348 348 347 344 344 348 346 344 338 327 322 323
354 355 354 355 356 352 345 344 344 343 343 344 346 346 347 351 349 349 355 353 349 350 353 356 356 355 355 355 354 353 352 352 351 350 349 348 349 351 351 351 348 345 345 343 343 344 347 349 348 352 350 344 348 348 339 347 351 335 332 343 342 334 330 328 326 325 326 328 331 334 339 344 347 348 348 347 345 346 348 344 339 335 327 322 322
354 354 353 353 354 353 349 347 345 343 344 343 346 348 347 347 347 347 352 355 350 349 353 355 355 355 356 355 354 354 354 354 353 352 353 351 351 352 352 352 350 349 348 345 345 344 346 348 347 350 350 341 344 350 345 349 350 336 333 346 348 337 329 329 327 325 326 326 329 333 338 344 347 347 347 347 346 348 348 341 334 331 327 322 321
353 354 354 351 350 350 352 352 349 345 346 345 345 347 346 347 349 346 346 352 352 349 352 356 356 354 355 355 354 355 356 356 354 355 355 352 352 353 352 352 351 352 351 348 349 348 346 347 346 349 351 344 342 347 350 353 349 336 332 340 347 341 330 330 330 327 326 325 326 330 336 343 346 346 346 347 347 348 347 340 332 328 326 323 321
351 352 353 351 347 344 347 351 351 348 347 348 347 345 345 346 349 348 345 348 349 347 349 355 356 355 355 356 356 356 357 356 355 356 356 352 352 354 353 352 351 352 353 352 352 352 349 347 346 348 351 348 345 347 353 357 347 334 332 334 338 337 330 330 333 330 328 325 324 326 332 341 345 344 344 345 346 348 347 343 334 328 325 324 322
349 351 352 352 349 344 341 344 349 348 345 347 347 344 343 345 349 351 348 347 345 345 349 353 356 356 355 356 357 356 357 357 356 357 358 355 354 355 353 352 352 352 354 354 353 353 352 349 347 348 351 350 349 348 350 353 347 337 334 333 333 333 333 334 332 333 332 327 325 325 327 336 343 344 344 343 345 347 347 345 339 331 326 323 322
348 350 352 353 352 349 346 346 349 350 348 349 349 347 343 343 349 352 353 351 347 347 350 350 352 356 356 355 353 353 355 357 357 357 358 357 357 356 354 354 352 351 352 352 352 353 353 351 350 350 351 350 351 351 348 348 349 343 334 333 332 332 340 344 336 334 336 333 328 325 324 330 337 342 344 342 343 345 346 346 343 337 329 324 323
347 349 351 352 352 351 350 349 350 351 350 350 351 351 347 342 344 348 351 353 352 351 351 348 350 356 358 354 351 350 352 354 356 357 356 356 357 356 356 355 353 353 353 351 350 353 353 352 354 352 351 352 352 354 352 349 352 349 337 333 334 336 347 351 345 339 338 338 334 328 325 327 330 338 343 343 343 343 344 345 345 342 335 327 323
347 348 349 351 351 350 351 350 349 350 351 350 349 351 351 346 343 345 350 350 348 348 350 349 349 353 356 354 352 352 351 352 354 354 353 353 354 355 356 355 355 354 354 353 351 353 354 353 354 353 352 352 352 354 354 350 347 341 334 333 337 344 349 347 348 347 344 343 339 331 328 327 326 332 338 342 343 343 343 343 344 344 341 333 326
346 347 348 348 349 350 351 349 347 347 349 347 344 347 350 349 346 346 350 352 349 348 349 348 348 349 352 352 351 352 352 352 353 353 351 351 350 352 354 355 356 354 354 355 353 353 354 354 354 353 352 353 354 356 354 350 344 339 338 338 339 346 347 341 345 352 351 350 344 334 332 329 325 327 331 337 342 343 342 342 342 343 343 339 330
344 346 346 347 348 349 351 348 344 344 346 345 342 343 346 347 346 344 345 349 351 352 352 351 351 350 351 352 351 351 351 352 353 353 352 351 350 350 351 352 354 354 354 355 354 351 351 353 353 351 350 351 352 352 351 351 352 349 346 342 337 341 343 339 344 351 352 351 346 340 336 330 326 327 327 331 338 341 341 340 341 342 343 343 337
342 344 345 346 347 349 349 346 343 342 342 342 341 344 348 348 346 345 345 345 346 349 350 350 351 351 351 352 351 351 351 351 352 351 350 351 350 350 350 350 351 352 353 354 355 352 349 347 348 347 346 345 344 346 347 350 353 355 354 350 345 345 345 341 346 352 351 348 349 349 342 332 328 328 327 328 332 337 340 339 339 341 342 344 342
342 342 344 345 346 347 344 340 341 341 338 338 338 339 346 350 349 348 349 347 345 344 343 345 349 351 351 351 350 350 350 351 351 350 350 350 351 350 350 350 350 351 352 353 354 354 351 346 343 344 347 349 351 353 354 352 353 353 350 347 346 348 353 352 350 350 349 350 352 350 344 340 335 329 326 328 329 332 336 338 339 340 341 343 344
344 342 343 344 346 346 341 334 337 342 339 337 336 334 336 345 350 351 350 349 349 346 343 344 348 349 349 350 350 349 349 349 349 349 349 350 350 350 350 351 351 351 351 352 353 354 354 351 349 350 352 354 355 357 357 356 355 349 343 343 346 350 356 357 351 348 349 352 350 347 347 351 347 335 330 330 329 330 333 336 339 339 340 342 344
345 342 341 342 345 347 345 337 334 340 342 339 337 333 330 334 344 350 351 349 349 348 347 346 347 346 346 346 346 346 347 347 345 343 346 350 351 351 351 350 351 352 351 351 352 353 354 355 354 354 354 354 354 354 353 354 354 352 349 352 356 356 355 355 354 353 353 351 350 350 352 354 351 343 338 333 329 331 330 332 337 338 338 341 342
345 344 341 340 342 344 347 345 339 340 343 344 342 338 332 331 336 344 349 349 347 347 346 346 346 345 344 343 343 343 343 345 345 342 341 343 344 347 351 352 353 352 350 350 351 352 353 355 354 353 352 352 352 352 352 353 354 355 354 353 354 355 354 354 355 356 355 354 354 354 354 354 353 350 347 341 335 333 329 329 334 336 337 340 342
346 346 343 342 342 342 345 348 346 344 343 343 344 341 334 330 331 337 345 349 349 348 346 345 345 345 344 342 342 341 340 341 343 341 335 331 330 332 338 344 346 346 344 344 347 350 352 354 354 352 351 351 350 350 350 351 351 352 352 351 353 355 355 356 355 354 354 355 355 353 351 351 351 351 353 352 346 339 331 328 331 333 336 340 343
349 349 348 346 344 343 344 346 346 346 343 341 342 340 335 329 328 333 340 347 349 349 348 347 345 344 343 342 342 341 342 341 340 336 330 326 326 325 325 329 331 332 333 335 340 347 353 355 354 352 351 349 347 347 346 345 343 344 344 346 350 351 350 352 355 355 353 352 352 351 348 346 345 348 351 352 351 347 339 331 331 334 338 343 344
352 351 351 351 349 346 345 345 344 344 344 342 342 341 338 331 327 329 335 343 348 348 348 348 347 345 344 342 342 341 341 342 341 337 331 326 326 326 324 324 325 325 326 328 331 337 345 351 353 354 353 351 349 347 346 345 343 342 341 343 346 346 342 343 349 352 351 349 349 348 347 345 346 348 345 343 349 352 347 338 335 337 341 344 345
355 355 354 354 353 351 349 347 346 345 344 343 343 343 341 335 328 325 328 336 342 344 345 347 348 348 347 345 344 342 340 340 340 341 339 332 325 326 326 324 324 324 324 324 325 327 330 336 341 344 345 348 350 349 347 348 348 345 339 335 335 337 337 339 345 348 347 347 349 350 349 347 347 349 346 344 350 352 349 344 341 339 340 343 344
356 356 356 355 355 353 352 351 349 349 347 346 345 344 344 340 333 327 325 327 332 336 340 342 344 347 349 349 346 340 335 333 334 339 342 336 327 325 326 325 325 324 324 324 325 325 325 326 328 329 330 334 339 339 339 342 344 342 337 332 330 332 336 339 341 341 337 335 340 346 347 346 346 349 349 350 352 351 346 345 344 340 338 341 343
356 357 356 356 356 355 353 352 351 351 351 349 348 347 347 346 341 335 331 329 328 329 332 334 337 340 344 348 349 343 334 328 327 330 334 333 328 325 325 325 325 324 323 322 322 323 324 325 326 326 327 327 328 330 331 335 340 340 338 337 336 336 337 337 336 334 331 332 338 345 346 344 346 349 349 349 351 350 345 344 345 341 337 339 343
356 356 356 355 356 356 355 352 351 352 353 351 351 350 349 349 348 345 343 340 335 332 330 329 330 332 334 338 342 341 335 330 326 325 326 328 328 327 326 324 325 328 330 330 328 325 323 324 324 325 326 327 328 329 330 335 341 345 346 347 344 339 337 337 334 332 334 339 344 349 349 347 347 349 348 346 349 350 347 344 343 340 337 340 343
356 356 356 356 355 356 356 355 354 353 354 353 352 352 351 350 350 350 350 348 345 340 335 330 328 328 328 329 330 330 330 328 327 325 325 326 327 328 328 328 329 334 338 341 341 337 333 330 329 329 329 329 331 332 332 333 335 338 343 347 346 342 340 338 335 333 336 342 346 347 348 349 350 350 349 348 348 350 349 347 343 341 340 343 345
357 356 356 357 356 357 357 357 356 354 354 354 353 352 352 351 351 351 351 351 350 347 342 337 333 331 329 329 329 329 328 328 327 327 328 328 329 330 331 331 332 333 334 338 343 344 342 339 338 338 338 337 336 337 337 336 336 336 338 339 340 342 343 341 337 334 336 339 342 343 344 346 349 349 349 349 349 350 351 350 347 345 345 346 347
358 358 357 356 356 356 356 357 356 355 355 356 354 353 352 351 351 352 352 352 352 351 349 346 342 339 337 335 333 332 332 332 332 331 332 332 333 333 333 334 335 333 331 335 340 342 343 343 343 343 343 343 344 344 341 340 341 341 339 337 336 338 340 339 338 340 342 339 339 343 345 345 347 348 349 350 350 350 351 350 349 348 348 348 348
Wind_Speed
9 10 12 13 11 12 13 13 13 14 14 13 13 15 14 14 15 12 10 11 10 10 10 10 10 10 10 10 10 10 9 10 9 8 7 7 8 8 8 8 7 7 7 6 6 6 5 5 5 5 4 5 5 5 6 6 6 6 5 5 5 5 6 6 6 6 6 6 6 6 6 6 6 6 6 5 6 7 7 7 7 7 7 7 7
9 9 12 12 10 12 11 11 13 14 14 11 10 13 13 12 14 12 10 10 10 9 10 10 9 9 9 9 9 9 9 9 9 8 7 6 6 7 7 7 7 6 6 6 6 5 4 4 4 4 4 4 4 5 5 6 5 5 4 4 5 5 5 5 5 5 5 6 6 6 6 6 6 6 6 6 6 6 7 7 7 7 7 7 7
10 9 11 10 9 12 10 10 12 12 13 11 10 12 11 12 13 12 10 10 9 9 9 10 9 9 9 9 9 8 8 8 7 7 6 5 5 6 6 6 6 6 6 6 5 5 4 3 3 3 4 4 4 4 4 4 4 4 4 4 4 4 4 4 5 5 5 6 6 7 7 6 6 6 6 6 6 6 6 6 6 7 7 7 7
11 9 9 8 8 11 10 10 10 10 12 12 11 12 12 14 14 11 10 10 9 9 9 9 9 8 8 8 8 8 7 7 7 7 6 5 4 5 6 7 7 6 6 6 5 4 4 3 3 4 4 4 4 4 4 3 4 4 4 5 5 5 5 5 5 6 6 7 7 7 7 6 6 6 6 5 6 6 6 6 6 6 7 7 7
11 11 8 7 8 8 10 10 9 10 12 12 10 11 12 13 12 10 9 9 9 8 8 8 8 8 8 8 8 8 7 7 7 6 5 5 5 4 5 6 7 7 7 6 5 5 4 4 4 4 5 5 4 4 4 5 5 5 6 5 5 5 6 6 6 6 6 7 7 6 6 6 5 5 5 6 6 6 6 7 7 7 7 8 8
11 12 8 7 7 7 8 9 9 10 10 12 10 10 12 10 10 10 9 8 8 8 7 8 8 8 7 7 7 7 7 7 6 6 6 5 5 5 3 4 5 6 6 6 6 6 6 6 5 5 5 5 5 5 5 6 6 6 6 6 6 6 6 6 6 6 6 6 6 5 5 5 5 6 6 7 7 7 8 8 8 8 8 8 9
10 12 8 6 7 6 6 7 10 8 8 12 10 8 11 8 7 10 9 8 8 8 7 7 7 7 7 7 7 7 7 7 6 6 6 5 5 5 4 3 3 3 4 5 7 8 6 6 6 6 6 6 6 6 6 7 7 7 7 7 7 6 6 6 6 5 5 5 5 5 5 6 6 6 7 7 8 8 8 9 9 9 9 9 9
9 12 9 5 6 6 5 7 9 7 9 12 8 5 8 7 7 9 9 8 8 8 7 7 7 7 7 6 6 7 6 6 6 5 5 5 4 4 4 4 3 3 5 6 7 8 7 6 6 6 6 6 6 6 7 7 7 7 7 7 6 6 6 5 5 5 6 6 6 6 6 7 7 7 7 8 8 9 9 10 10 10 10 11 11
9 11 10 5 6 6 4 7 7 6 8 9 6 5 6 7 8 8 8 8 7 7 7 7 6 6 6 6 6 6 6 5 5 5 5 4 4 4 4 3 5 7 7 5 5 6 7 7 7 7 7 6 7 7 7 7 7 7 7 6 6 6 5 5 6 6 6 6 7 7 7 7 7 8 8 9 9 9 10 11 11 11 12 12 12
8 10 10 6 6 6 4 6 6 6 8 7 5 6 5 6 7 7 8 7 6 7 7 6 6 5 5 5 5 5 5 5 5 4 4 4 5 5 4 3 4 5 5 4 3 4 5 6 7 7 7 7 7 7 7 7 7 6 6 6 5 5 5 6 6 6 6 7 7 7 8 8 8 9 9 10 10 11 11 12 12 13 13 13 13
7 8 9 6 5 5 5 5 5 5 7 5 4 5 6 6 6 7 8 6 6 6 6 6 5 5 5 4 4 5 5 4 5 4 4 5 5 4 4 4 4 4 5 5 3 4 3 5 6 6 6 6 6 6 6 6 6 6 5 5 5 5 5 6 6 6 6 7 7 8 8 9 9 10 11 11 12 12 13 13 14 14 14 14 14
7 7 7 6 4 4 5 5 4 5 7 5 3 3 5 6 6 6 6 5 5 5 4 4 4 4 4 5 4 4 4 4 4 5 5 4 4 4 5 5 5 4 5 5 4 2 2 5 6 3 3 5 6 6 6 5 5 5 5 5 5 5 5 6 6 7 7 8 8 9 9 10 11 11 12 13 13 14 14 15 15 16 16 16 17
7 6 6 7 5 4 5 6 4 4 7 5 4 4 5 5 5 5 5 5 4 3 4 4 4 5 4 5 5 4 4 4 5 5 6 5 4 4 5 5 5 6 5 5 6 3 2 4 5 2 1 3 5 5 5 5 5 5 5 5 5 5 6 6 7 8 9 9 10 10 11 11 12 12 13 14 15 15 16 16 17 18 18 19 19
7 6 6 6 5 4 4 6 5 4 5 4 3 4 4 4 5 4 3 4 3 3 4 4 3 4 5 6 5 4 3 3 4 5 5 5 4 5 5 6 6 6 5 4 5 4 3 4 3 2 1 3 3 4 5 5 5 5 5 5 5 6 7 8 9 10 11 12 12 12 13 13 13 14 15 15 16 17 17 18 19 19 20 21 21
7 6 6 6 5 4 4 4 5 5 4 4 3 3 4 4 4 4 3 3 3 3 4 4 4 4 6 6 6 5 3 2 4 5 4 4 5 5 5 6 6 5 4 4 4 4 3 2 1 2 3 5 3 1 3 4 5 5 5 6 6 8 9 11 12 13 14 14 14 15 15 15 16 16 17 17 18 18 19 19 20 21 21 21 21
7 6 6 6 6 6 4 4 5 4 4 4 3 2 3 4 3 5 5 3 2 3 4 4 5 5 4 5 6 5 4 5 6 5 4 4 5 5 5 6 6 5 4 5 4 4 3 1 1 3 4 5 4 3 1 3 4 5 6 7 9 10 12 13 14 15 16 16 16 17 17 17 18 18 18 19 19 19 20 20 20 20 20 21 21
6 7 5 5 7 6 5 5 4 4 4 4 3 2 3 3 3 5 6 3 3 3 3 3 4 6 5 4 6 5 4 5 5 3 2 4 6 5 5 6 6 4 3 4 4 3 3 1 3 4 5 5 4 4 2 2 4 6 7 9 11 12 13 14 15 16 17 17 18 18 18 18 18 18 18 18 18 19 18 18 19 19 19 20 20
6 7 6 5 6 6 6 5 4 4 5 4 3 3 3 2 2 4 3 5 6 3 3 3 3 5 6 4 5 4 3 3 3 2 1 2 5 5 6 6 5 5 4 4 4 3 4 1 4 5 4 4 2 2 1 2 5 7 9 11 12 13 15 15 16 17 18 18 18 18 17 17 17 17 17 17 17 16 17 17 19 20 20 20 20
6 7 7 6 5 5 5 6 4 3 4 5 3 2 3 3 3 4 4 7 8 5 4 3 2 3 4 3 3 3 3 3 3 3 1 1 3 5 7 6 5 6 5 5 5 3 3 2 1 1 1 2 1 1 1 3 5 8 10 12 13 14 15 16 16 17 17 17 16 16 15 15 15 15 15 15 15 16 18 19 21 21 21 20 19
7 7 7 6 5 5 5 6 6 4 3 4 3 4 5 4 5 6 6 7 8 7 6 4 2 2 3 3 2 2 4 3 3 3 2 2 3 4 6 6 6 5 4 5 5 3 3 3 2 2 1 1 1 1 1 3 6 9 11 12 13 14 14 15 16 16 16 16 15 15 15 14 14 15 15 16 17 19 20 21 21 20 19 17 16
9 8 7 6 5 5 5 6 6 5 4 3 3 5 6 5 5 5 5 5 6 7 6 5 3 2 2 3 3 3 3 3 3 3 2 3 3 4 5 5 5 4 3 4 4 3 4 3 2 3 2 1 2 2 1 3 5 8 11 13 13 13 13 14 15 16 16 16 16 16 16 16 16 16 17 18 19 20 21 20 19 18 16 15 14
9 7 6 6 5 5 5 5 5 5 5 4 4 4 4 4 4 4 5 5 5 6 5 5 4 3 2 3 3 3 2 2 3 3 2 3 2 4 6 5 5 4 2 3 4 3 3 2 3 4 2 0 1 1 2 4 4 6 11 13 13 12 12 14 16 17 17 17 17 18 17 17 18 18 19 19 20 19 18 17 17 16 15 14 13
8 7 6 6 6 6 5 5 5 5 5 5 5 3 2 2 3 3 4 5 5 5 4 4 4 4 3 3 3 3 3 2 2 3 3 2 3 2 3 3 3 5 3 2 3 2 3 2 3 3 2 1 1 1 4 6 5 7 11 12 12 11 12 15 17 18 19 19 19 19 19 18 18 18 19 19 18 17 16 16 16 16 15 14 13
8 7 6 7 7 6 6 6 6 6 5 5 5 4 4 4 3 3 2 3 4 5 5 3 3 4 4 3 4 3 3 3 2 3 3 2 3 3 1 2 3 3 4 4 3 3 3 3 3 3 2 1 2 2 4 6 7 9 12 13 11 11 13 15 17 19 19 19 20 20 19 19 18 18 19 18 15 14 15 16 17 16 16 15 15
10 8 7 8 8 7 8 8 8 7 7 6 6 7 7 5 5 4 4 2 2 3 4 4 3 3 3 3 4 4 4 3 3 3 2 2 3 4 3 2 4 4 3 3 4 4 4 3 3 2 2 1 3 3 3 5 11 11 13 14 12 12 14 16 17 20 20 20 20 20 20 19 18 18 18 16 13 13 16 18 19 18 18 17 16
10 9 9 9 9 7 7 8 8 7 7 7 7 8 8 6 4 4 5 2 2 3 3 3 4 4 3 3 3 3 4 3 3 3 3 3 3 3 3 3 5 4 4 4 5 4 4 4 4 3 3 2 3 5 1 2 11 12 12 15 14 14 15 16 18 20 20 20 20 21 20 18 18 18 17 15 13 15 18 20 21 21 19 17 17
10 10 10 10 10 9 8 8 8 7 7 6 6 7 7 6 5 4 5 3 3 3 3 3 4 4 4 4 4 3 3 3 3 3 3 3 2 3 2 3 5 3 3 5 6 5 4 5 4 3 5 5 3 6 5 3 9 12 12 13 15 16 16 16 19 20 19 20 21 21 21 18 17 18 17 15 15 16 20 22 23 22 20 19 18
10 10 11 11 11 10 8 8 8 7 7 7 6 6 6 6 6 5 5 3 3 2 3 3 4 4 4 5 5 4 3 3 3 2 3 3 3 3 2 2 3 2 2 4 6 6 5 5 7 6 8 9 5 6 6 4 7 11 11 9 12 16 18 17 18 18 18 20 21 21 21 18 17 18 18 16 16 18 21 23 24 23 21 20 19
10 11 11 12 11 11 10 9 8 8 8 7 7 6 5 5 5 4 5 6 5 4 4 4 4 4 4 4 4 4 4 4 3 2 4 5 4 3 3 3 3 2 2 3 5 5 4 6 8 8 10 11 7 6 7 6 9 11 11 10 10 14 18 17 16 17 17 20 21 21 21 19 17 18 18 18 18 19 21 23 24 24 22 21 19
12 11 12 12 12 12 11 11 10 10 9 8 8 7 6 6 5 5 5 7 7 6 4 5 4 4 4 4 4 4 4 4 4 3 5 6 4 4 4 4 4 3 3 4 5 5 5 5 6 7 10 9 6 5 5 8 12 11 11 12 12 14 17 16 15 16 17 18 20 21 21 19 18 17 18 19 19 19 21 23 24 24 23 21 20
14 13 12 12 13 13 12 12 11 11 10 10 9 9 8 7 7 6 6 6 7 5 4 5 5 5 5 5 6 5 4 4 4 4 5 5 4 5 6 6 6 6 5 5 6 7 6 6 7 7 8 9 7 7 7 8 12 12 11 12 14 15 16 15 16 17 17 18 19 20 21 20 18 18 18 19 19 19 20 22 23 23 23 22 20
15 15 15 14 14 13 13 12 11 11 11 10 10 10 9 9 8 8 7 7 7 6 6 7 6 5 6 7 7 7 5 5 5 5 6 6 6 6 6 7 8 7 7 7 8 9 8 8 9 9 8 9 9 9 9 8 10 12 13 13 15 16 15 15 16 17 17 18 18 19 20 20 19 18 18 18 19 19 20 21 22 23 23 22 21
16 16 16 16 15 15 14 13 12 11 12 12 11 11 11 10 9 9 9 8 8 7 8 8 6 5 7 8 8 7 6 6 6 5 6 7 7 7 7 8 9 8 8 9 9 10 10 9 10 9 9 9 9 9 10 8 8 11 13 13 14 14 12 13 16 17 17 18 19 19 19 19 19 18 18 18 18 19 19 20 21 22 22 22 21
18 17 17 17 16 16 15 15 14 14 14 14 13 12 12 12 11 10 9 10 10 8 8 9 8 8 8 9 8 8 7 7 7 7 7 7 7 8 8 8 9 8 9 11 11 10 10 10 10 10 10 11 10 9 10 10 10 12 13 13 12 11 10 12 15 17 18 19 20 20 18 18 19 18 18 18 17 18 19 19 20 21 22 22 21
19 19 18 17 17 17 17 17 17 16 16 16 15 14 14 14 13 12 11 11 11 10 10 10 10 9 10 10 9 8 8 9 9 8 8 8 8 9 9 9 9 9 9 11 12 12 11 10 10 10 10 11 10 10 11 12 13 13 13 12 11 10 11 12 13 16 18 19 21 20 18 18 19 19 18 18 17 17 18 18 19 20 21 22 21
19 19 19 18 18 19 19 19 19 18 18 18 16 16 15 15 15 14 13 13 12 12 11 11 10 11 11 11 10 10 10 10 11 10 9 9 9 9 10 10 10 11 11 12 13 13 13 12 12 12 12 13 13 13 12 12 12 13 13 15 14 12 13 13 11 15 18 19 20 20 19 19 19 19 18 18 17 17 18 18 18 19 20 21 21
20 20 20 20 20 21 21 21 21 20 19 19 18 17 16 16 16 16 15 15 15 14 13 13 12 13 12 12 12 11 11 12 11 11 11 10 10 10 10 10 11 11 11 12 13 14 15 15 14 14 15 15 16 15 14 13 12 12 12 15 16 15 16 14 10 13 18 19 19 19 19 20 20 19 20 19 17 17 17 17 17 18 19 20 21
22 21 21 21 21 22 23 23 22 22 21 21 20 20 19 17 17 17 16 16 16 15 15 14 14 14 14 14 13 13 13 13 12 12 11 11 11 11 11 11 11 11 12 13 13 14 16 16 16 17 16 16 15 14 14 14 14 13 13 14 15 14 15 15 12 13 17 19 20 20 20 20 20 20 20 20 18 17 16 16 17 18 18 19 20
23 23 22 21 22 22 24 24 23 23 23 23 22 22 21 20 19 18 17 17 16 16 16 15 15 15 14 14 14 14 14 14 14 13 13 13 12 12 12 13 12 13 13 13 14 15 16 16 16 16 15 15 14 14 14 14 15 16 16 15 14 12 12 14 15 15 14 15 20 22 20 19 19 19 20 21 20 18 16 15 16 17 18 18 20
23 23 23 22 22 22 23 24 24 23 23 24 24 24 24 23 21 20 19 19 18 17 16 16 15 15 15 15 15 15 15 16 16 15 14 14 14 13 13 13 13 14 14 14 14 15 16 16 16 15 15 15 15 15 14 14 15 17 16 13 12 12 12 13 15 15 13 13 16 19 21 21 20 19 19 21 22 21 18 16 15 16 17 18 19
22 22 23 23 23 23 22 23 23 23 23 24 25 25 25 24 23 22 21 21 20 19 18 17 17 17 17 17 16 16 16 16 18 18 17 16 16 15 14 14 15 16 16 16 16 16 16 17 17 16 16 16 16 15 15 14 15 15 14 12 13 14 13 13 13 13 15 14 12 13 17 20 20 20 21 22 21 22 22 18 15 16 17 17 18
24 23 23 23 23 23 23 23 23 23 23 23 24 26 26 26 25 23 22 21 21 21 20 20 19 18 18 18 18 18 18 19 21 23 22 19 19 19 18 18 18 19 19 18 18 18 18 18 18 17 17 17 16 15 14 14 14 14 14 14 14 13 12 13 14 14 14 14 13 13 15 16 17 20 21 20 21 24 24 20 17 17 17 17 18
26 25 24 24 24 23 23 23 23 23 23 23 25 27 28 27 26 25 23 22 22 22 22 22 22 21 20 20 20 20 21 22 24 26 25 22 21 22 22 23 23 23 23 22 21 20 19 19 19 18 18 18 17 16 15 14 14 14 14 14 14 15 16 16 16 14 14 15 16 17 18 17 17 18 18 18 20 23 24 22 20 19 18 17 18
27 27 26 25 25 25 24 24 24 24 24 24 25 27 29 29 28 26 25 23 22 22 23 23 23 23 23 22 21 21 21 22 24 26 27 26 24 24 24 25 25 26 26 26 26 24 23 22 21 20 20 20 19 17 17 16 15 15 15 16 17 19 21 20 18 17 16 17 18 20 21 19 17 17 20 20 18 19 22 23 21 20 19 18 18
27 27 27 27 26 26 26 26 25 25 24 25 26 28 30 31 30 28 28 27 25 24 23 23 23 24 25 25 25 25 24 23 23 24 26 29 28 26 26 26 27 28 29 29 29 29 28 28 27 27 26 24 22 21 19 18 18 19 20 21 21 22 22 21 21 20 18 19 19 20 22 22 19 19 21 21 17 19 23 24 22 20 20 19 18
28 28 28 27 27 28 28 28 28 27 26 26 27 29 31 32 31 30 30 31 30 29 27 26 25 24 25 26 28 30 30 29 28 27 27 30 32 30 29 29 29 29 29 30 31 31 31 31 32 33 31 30 29 28 27 25 24 25 26 26 25 24 22 21 22 22 22 23 22 22 24 23 20 18 18 17 18 22 25 26 23 22 22 20 17
27 28 28 27 27 28 29 29 29 29 29 28 29 30 31 33 33 32 32 32 34 34 34 33 32 30 29 28 28 31 34 35 35 33 31 33 34 34 33 33 32 32 32 32 32 32 33 33 34 34 33 32 32 31 31 29 28 28 28 27 25 23 22 22 24 25 25 24 22 22 24 23 18 16 16 15 18 24 25 26 26 23 20 18 17
25 27 27 27 27 27 28 29 30 30 29 29 31 33 34 34 34 33 32 33 34 36 38 38 38 38 37 35 34 35 37 38 38 38 36 35 35 36 36 36 35 33 32 32 32 33 33 34 35 35 34 32 31 31 31 29 27 26 25 24 23 22 23 25 26 27 25 22 19 18 23 24 19 16 15 14 16 22 25 26 26 22 16 15 16
23 24 24 24 25 26 26 28 29 30 29 29 31 33 35 35 34 33 32 32 34 36 39 40 41 42 42 42 41 42 42 42 41 41 39 38 37 37 37 37 36 34 32 29 28 30 32 32 33 34 34 32 31 30 30 30 29 28 27 27 27 26 27 28 29 29 26 21 17 16 20 23 20 17 16 15 15 19 23 26 26 23 18 17 18
20 21 21 21 22 23 24 26 28 29 29 30 31 33 34 34 33 33 32 32 33 35 37 40 41 43 44 44 44 44 45 44 44 43 42 41 40 39 39 38 37 38 37 32 27 27 29 31 31 31 32 32 31 30 30 30 30 30 30 31 31 30 29 29 30 30 28 25 21 17 19 21 19 17 17 16 16 17 20 25 26 24 21 20 20
20 19 19 21 22 22 22 24 26 28 28 28 30 33 34 33 32 32 31 32 33 35 36 38 40 41 43 44 45 45 46 45 45 44 43 43 42 42 41 40 40 41 40 35 30 28 27 29 30 31 31 31 31 31 31 30 30 30 31 33 33 33 33 33 32 29 27 27 23 17 18 20 19 18 17 16 17 16 17 23 26 24 23 23 22
Wind_Direction
112 117 117 119 119 110 108 110 108 110 107 107 117 106 92 95 100 106 109 106 108 108 108 109 109 109 109 109 111 113 114 114 113 111 103 92 89 92 92 92 91 90 91 89 86 83 82 85 88 92 88 79 74 68 65 61 59 59 55 45 36 30 27 26 23 28 39 43 44 45 49 50 50 54 51 46 42 36 34 32 30 29 27 24 22
114 120 116 110 106 102 100 99 97 98 97 93 96 96 94 97 101 104 105 104 105 107 109 109 109 112 110 108 110 112 112 112 113 118 121 107 93 95 91 87 86 81 79 78 78 79 79 86 93 95 87 77 74 69 64 59 55 53 49 41 36 35 32 33 37 45 52 53 54 55 55 54 52 50 45 41 36 33 30 27 24 21 18 15 11
117 118 109 105 105 101 96 91 88 90 94 92 89 95 103 106 105 106 105 105 106 108 110 111 110 110 112 114 114 115 113 111 111 115 126 129 105 94 89 85 82 77 75 75 78 78 79 85 86 81 75 70 66 63 62 55 49 48 44 43 46 49 50 53 55 58 61 61 60 57 55 50 46 42 35 30 26 24 20 16 12 6 2 358 353
121 115 103 103 101 97 99 94 91 95 101 105 103 100 101 99 99 101 102 102 104 107 107 110 111 111 114 117 116 116 115 115 117 119 128 132 113 93 92 89 82 77 78 79 81 81 81 77 68 64 59 58 54 53 61 57 48 52 55 56 60 64 67 68 68 67 65 63 60 53 48 41 35 29 20 14 9 4 359 354 350 345 341 338 335
124 113 101 104 99 99 105 100 102 109 109 108 101 97 96 92 91 91 95 98 100 104 106 109 110 111 114 114 115 113 112 115 118 121 119 116 117 106 92 92 91 85 82 82 79 74 70 68 62 59 57 55 54 57 67 69 62 61 64 65 69 74 76 75 73 70 64 59 53 45 35 23 14 6 357 353 349 342 338 335 332 329 327 325 323
125 111 100 103 100 97 99 101 106 104 105 99 86 85 85 82 91 93 89 92 101 104 104 108 107 110 112 110 112 110 111 113 115 120 120 120 122 123 110 85 82 82 82 78 66 58 57 59 61 61 63 62 63 69 74 74 72 70 71 73 76 76 75 73 69 63 57 48 38 26 13 2 353 348 345 342 339 334 331 329 326 324 322 319 318
129 114 101 102 104 96 94 108 105 98 107 99 83 79 81 75 81 91 91 90 100 105 104 106 106 110 111 109 111 109 109 110 112 116 119 121 114 120 124 95 74 71 77 72 59 52 49 53 60 63 66 70 73 75 76 77 77 78 77 77 77 75 70 64 56 47 39 30 17 5 358 352 349 346 344 340 336 333 329 327 324 322 319 317 316
132 118 104 102 108 102 112 117 103 102 112 99 89 91 98 104 90 87 96 91 91 99 102 105 104 109 111 111 110 108 108 107 111 113 114 121 112 110 115 120 125 83 63 58 50 46 47 55 64 68 72 75 77 77 77 79 80 80 79 77 72 67 60 50 39 30 22 15 5 357 352 349 347 343 340 337 333 330 327 324 321 318 316 315 313
136 124 109 108 110 107 125 118 106 114 110 95 97 101 99 111 105 96 93 84 89 95 96 101 104 110 114 114 112 110 112 109 112 113 110 116 117 117 113 103 81 61 60 60 43 38 47 60 69 72 72 72 75 78 81 81 81 79 75 70 64 55 46 35 27 19 12 6 358 351 348 345 342 340 337 334 331 328 325 323 320 318 316 315 313
147 134 122 130 130 128 138 120 113 112 101 92 102 106 102 109 115 116 101 88 90 91 95 100 102 111 117 119 118 114 112 111 115 115 102 99 112 123 118 106 82 78 110 112 64 42 53 68 76 73 67 69 73 76 79 78 76 74 68 61 52 43 33 26 18 11 5 359 353 348 345 343 340 338 337 335 332 330 327 324 322 320 319 318 317
154 145 134 133 133 138 140 118 112 102 93 90 95 105 116 117 122 123 109 100 96 92 98 97 95 109 121 123 118 116 115 110 111 110 108 106 117 132 118 118 124 107 113 118 78 42 54 80 81 67 57 65 71 72 75 72 67 61 55 50 42 35 27 20 12 5 359 352 348 345 342 340 339 337 335 333 331 329 327 325 324 322 322 321 320
160 158 143 134 133 140 134 118 115 115 108 104 105 114 118 118 126 125 115 111 101 96 95 91 101 108 116 126 120 118 116 117 123 118 118 111 104 130 124 114 127 117 103 120 123 82 52 82 85 69 48 66 71 66 65 61 59 56 48 44 36 29 21 12 5 358 351 347 344 341 339 336 334 332 330 329 327 326 325 324 324 323 323 322 322
162 161 152 146 144 142 134 122 118 130 128 128 137 131 117 116 128 129 121 114 101 100 99 93 103 106 116 131 126 123 112 111 130 127 123 119 96 110 129 119 117 124 121 123 127 119 49 67 85 96 35 74 72 62 64 60 56 52 44 40 29 20 11 1 357 351 346 344 340 337 335 333 331 329 328 326 326 325 324 324 324 324 323 322 322
157 159 154 143 139 137 131 131 137 141 131 125 130 127 123 123 122 120 121 113 99 107 118 100 89 109 125 131 125 123 124 124 140 139 130 130 118 108 123 126 115 118 126 117 111 105 69 66 99 153 119 90 73 47 57 57 51 45 34 29 18 9 2 356 353 349 346 343 339 336 333 330 329 327 327 326 325 325 325 325 324 323 323 322 321
157 159 152 146 145 131 121 138 144 139 131 124 125 130 134 127 117 122 125 121 108 102 111 98 85 110 125 133 131 115 112 135 138 134 125 134 142 124 117 125 120 122 135 125 114 118 120 118 135 125 89 87 92 45 35 21 27 33 20 17 9 3 0 357 354 350 345 341 336 333 330 328 327 326 326 325 325 325 325 324 323 322 322 322 322
160 154 151 163 150 134 145 159 148 144 140 122 113 110 120 120 135 136 119 109 117 105 103 90 92 119 129 136 133 115 111 130 134 129 119 128 133 123 124 129 122 123 134 133 131 130 144 161 49 75 77 81 91 87 59 336 8 23 10 9 6 3 2 357 353 348 342 338 334 331 328 327 327 326 326 326 326 325 324 324 323 323 323 323 323
169 152 159 182 155 152 171 160 154 151 121 97 110 133 133 131 156 140 124 131 140 125 119 91 98 131 134 127 127 121 115 122 138 145 114 115 114 110 130 133 122 126 134 131 134 129 143 210 8 45 60 62 65 62 54 322 1 16 9 10 6 2 360 354 348 344 341 338 335 332 330 329 328 328 328 328 327 327 326 326 326 326 326 326 326
179 160 170 192 164 167 169 147 158 152 135 148 157 146 135 133 146 132 143 166 149 132 128 104 103 126 123 116 115 114 105 96 117 132 72 120 131 125 129 133 123 126 138 137 134 128 144 209 351 15 27 33 24 18 11 317 352 11 9 5 2 357 353 349 345 343 342 339 337 336 334 334 333 332 332 331 332 331 331 331 330 330 328 328 326
179 174 177 189 168 171 170 149 156 161 158 158 135 133 143 144 164 154 180 187 163 149 135 122 124 125 130 138 116 112 114 101 108 117 79 92 129 127 128 140 136 125 137 141 134 129 140 159 21 26 351 353 337 349 350 309 340 4 3 356 352 350 347 347 347 345 345 343 342 342 342 342 341 340 340 339 339 338 336 334 332 331 330 330 329
180 193 180 185 176 174 182 161 153 171 173 140 133 192 187 177 188 177 181 186 172 164 145 133 152 148 161 164 143 143 129 114 118 123 114 100 109 119 120 129 131 117 120 131 131 131 130 138 153 168 212 321 358 37 314 299 324 344 353 351 344 344 348 351 351 351 351 350 350 352 351 352 350 348 347 345 343 341 338 336 335 336 338 339 340
187 203 183 187 190 178 187 171 157 167 160 141 170 207 208 195 183 177 175 172 174 175 162 160 169 152 170 171 158 170 156 142 142 134 152 153 129 122 119 120 126 115 95 111 121 123 122 117 128 147 177 314 356 10 318 299 314 329 342 346 342 346 354 357 357 357 357 357 358 359 357 355 354 352 350 347 344 342 341 342 344 347 350 351 352
193 206 194 193 198 187 187 177 167 169 160 167 193 203 214 192 166 171 175 175 188 180 173 188 176 141 168 192 172 164 164 169 164 147 157 179 182 158 153 156 152 145 117 107 121 128 131 105 110 136 152 164 350 317 280 298 321 326 335 341 344 351 360 1 1 359 360 3 4 3 1 358 357 355 351 348 346 347 349 351 354 355 356 358 1
193 207 206 196 203 196 184 183 183 185 180 179 188 190 188 172 179 194 175 175 189 177 175 203 192 173 192 203 183 174 174 179 201 185 166 199 247 234 161 152 160 159 159 158 149 151 160 146 141 158 166 173 193 265 299 314 335 333 333 343 348 354 4 3 0 360 2 6 7 6 4 1 358 356 353 351 351 354 356 358 358 357 0 3 7
189 203 203 194 207 197 180 190 191 191 191 175 176 185 175 178 203 203 170 169 175 171 176 196 213 202 202 213 208 211 208 207 214 191 184 205 223 260 303 152 190 169 154 176 174 163 166 161 156 160 177 247 264 325 336 323 325 336 337 340 350 359 6 3 359 0 3 7 8 7 4 2 0 359 357 355 357 0 360 359 360 0 3 5 7
188 195 193 193 209 199 184 197 199 193 191 180 184 187 176 188 207 182 162 172 179 181 178 184 222 217 207 224 222 228 228 223 221 193 202 211 201 256 293 212 215 193 160 196 186 171 180 186 189 191 209 260 302 328 14 313 307 327 335 333 351 8 4 360 358 360 3 7 10 7 4 3 2 0 359 359 0 1 359 359 3 5 5 7 9
193 193 189 191 206 208 195 198 205 203 197 193 196 191 179 191 213 176 159 187 213 206 195 201 227 218 209 225 221 229 230 223 229 215 220 227 208 246 278 265 246 207 171 205 201 195 203 205 214 234 243 233 276 299 349 269 290 315 335 334 349 4 1 358 359 360 2 7 9 7 5 4 2 1 2 3 0 359 359 1 6 8 7 10 11
201 199 194 191 199 211 207 201 206 207 204 206 207 202 190 193 207 178 165 217 237 194 192 216 232 222 216 224 216 221 233 228 237 243 240 238 231 235 235 266 271 232 181 195 202 216 213 195 207 240 271 275 276 293 308 272 283 314 342 341 340 350 358 359 357 358 360 5 8 8 6 4 1 2 4 4 2 3 3 4 8 10 10 12 13
206 205 203 199 199 206 207 205 211 209 206 210 209 208 208 207 214 191 169 210 255 209 187 205 228 229 226 225 216 216 237 233 232 250 246 226 219 228 218 249 278 258 220 208 205 216 213 213 228 245 280 293 290 285 296 289 289 315 341 344 331 339 353 356 353 356 359 3 6 6 7 5 0 2 5 4 4 6 6 6 9 11 12 12 11
203 205 208 206 203 204 201 203 214 216 211 214 214 213 220 222 225 221 191 198 227 232 206 203 223 226 224 231 228 226 242 240 229 244 249 233 212 216 226 230 238 240 253 241 222 223 230 238 246 263 284 290 289 296 302 294 293 310 333 341 329 333 344 347 347 354 359 2 3 4 6 5 1 1 4 3 3 6 7 7 9 10 9 10 8
204 204 211 213 211 209 203 200 210 218 214 214 218 218 222 227 227 236 222 208 224 237 213 203 217 220 215 224 232 231 240 245 235 243 260 251 222 216 227 223 220 231 245 243 243 247 252 251 253 282 300 298 296 304 297 288 295 308 327 333 329 330 337 341 346 353 358 1 0 0 2 2 0 360 1 2 1 4 6 7 7 8 7 6 5
208 206 207 211 215 215 212 208 209 217 219 217 222 223 219 224 228 236 241 232 235 241 228 217 214 219 223 221 227 230 232 239 232 231 252 255 237 224 225 224 222 227 232 236 247 250 249 255 259 274 295 295 284 273 261 275 295 305 317 327 329 332 335 339 346 350 352 356 357 356 357 358 357 357 359 360 360 1 3 4 6 6 5 4 3
211 211 207 206 211 213 213 213 211 217 223 219 223 230 226 223 222 227 241 251 246 239 239 231 211 216 236 231 231 235 233 237 238 239 248 251 247 235 228 230 229 229 232 235 244 251 251 256 265 271 275 278 282 280 274 283 296 302 313 324 328 333 333 329 335 342 343 347 352 353 352 352 351 353 355 356 357 359 359 360 3 4 4 3 2
210 213 213 209 209 210 209 211 210 214 223 220 217 226 233 231 224 220 226 236 238 234 240 240 221 221 243 242 238 240 237 236 238 243 250 253 253 247 240 240 239 239 243 243 246 256 260 260 266 272 267 266 275 279 280 288 289 293 307 317 322 330 327 315 319 328 333 337 343 347 346 345 346 349 351 351 352 354 354 355 359 1 1 1 1
209 211 215 213 211 212 210 211 210 209 219 224 219 218 228 234 231 226 227 235 239 234 234 241 233 225 236 243 243 244 247 247 245 244 248 251 253 252 250 249 248 246 246 248 249 253 262 266 265 268 267 269 272 271 275 283 282 287 301 309 313 316 310 308 309 313 323 330 333 339 341 339 341 343 344 346 346 348 350 352 355 358 358 358 359
212 211 213 213 214 216 214 215 216 214 218 226 224 218 222 230 230 225 224 233 242 242 238 243 243 236 237 242 244 244 247 250 250 248 247 248 250 251 252 251 251 249 247 251 254 253 257 263 265 266 268 270 270 269 276 284 288 294 300 302 307 301 295 308 309 300 309 317 319 328 334 333 336 338 338 340 340 342 345 348 352 355 354 355 356
213 214 213 212 214 217 217 219 222 222 222 227 229 225 224 229 231 229 225 225 230 236 237 237 239 240 240 242 244 243 242 246 249 249 247 248 248 249 251 251 252 252 250 252 256 257 258 259 261 264 265 266 266 270 278 282 286 293 297 299 305 300 294 309 313 294 294 302 308 319 328 328 331 332 333 335 335 338 342 345 349 352 351 352 353
211 214 216 214 213 216 220 222 225 226 226 228 230 229 226 228 233 232 231 232 231 232 236 236 235 237 238 239 240 240 241 244 247 249 250 250 250 249 251 252 255 257 255 255 258 261 263 265 267 268 269 271 274 276 278 277 277 283 289 294 300 301 300 308 308 288 291 302 308 314 320 323 326 327 330 333 332 333 337 342 347 350 349 349 350
211 212 215 216 215 218 224 228 228 229 231 232 231 230 226 226 231 232 231 235 237 237 238 239 237 237 238 238 239 239 241 242 244 247 250 250 250 249 250 250 251 255 256 257 259 260 265 270 273 274 274 275 277 278 277 278 278 276 278 283 289 295 296 299 298 292 300 309 308 308 315 320 322 324 327 328 329 329 332 340 346 346 347 346 346
211 211 213 216 217 220 227 232 230 229 233 234 234 235 230 224 225 229 230 231 235 238 239 237 236 237 239 241 242 243 244 245 245 244 245 250 252 250 251 253 252 253 255 258 260 261 263 268 271 272 274 274 273 272 273 277 279 282 289 291 288 284 277 282 291 296 300 301 301 307 314 316 316 322 324 323 326 327 328 339 345 343 344 343 342
212 213 213 215 216 218 225 232 232 230 232 234 235 237 237 232 226 225 228 230 230 232 235 235 233 234 237 240 243 245 247 250 252 250 245 245 250 252 252 254 254 255 256 256 258 259 261 264 265 266 268 269 268 268 270 271 272 281 291 291 283 279 275 278 288 295 294 292 297 306 309 308 312 319 321 320 323 322 323 335 342 338 339 339 339
212 213 214 215 217 218 220 227 231 229 227 231 234 236 239 238 233 228 229 232 232 229 231 234 234 235 236 238 241 243 244 249 255 257 251 244 246 250 251 251 252 255 257 257 256 257 259 260 262 264 265 266 266 267 267 267 267 273 280 278 276 281 283 283 285 288 289 290 288 288 293 303 312 317 316 316 318 318 319 329 337 334 335 338 336
213 213 215 215 217 219 220 221 226 227 226 227 232 237 240 240 239 234 229 231 233 231 230 232 234 235 237 239 241 242 243 244 249 255 258 255 255 256 254 253 253 254 257 259 258 258 258 259 261 263 264 265 266 267 267 268 270 273 276 277 279 284 286 284 285 286 285 283 279 276 280 292 302 304 304 305 309 311 313 323 334 333 333 335 332
214 214 215 216 216 218 221 222 223 226 228 229 232 239 243 244 242 239 234 231 232 233 233 234 235 236 238 239 241 243 244 245 248 255 260 261 261 262 261 261 260 260 261 260 259 258 257 258 261 262 264 265 266 266 266 269 272 273 274 274 274 279 284 284 285 289 287 283 284 286 288 292 295 295 294 294 297 298 301 315 331 330 328 330 327
215 215 215 216 218 218 221 224 225 227 229 230 232 239 245 247 244 241 238 234 233 235 237 238 239 240 241 241 242 243 245 248 253 260 264 262 259 260 263 265 265 265 264 263 262 260 257 256 258 259 260 263 264 265 265 266 267 265 266 268 268 275 283 285 284 285 287 287 288 289 291 294 295 292 293 295 289 279 286 306 322 323 319 320 319
214 216 217 218 220 221 222 224 226 228 229 231 233 237 243 248 248 244 241 237 235 236 238 240 241 242 244 244 243 244 244 246 251 257 261 263 262 260 261 264 264 264 265 266 266 266 263 261 260 261 262 261 261 262 262 262 262 262 267 273 276 278 281 283 283 283 285 285 285 285 287 290 290 285 287 293 285 273 282 298 309 313 311 309 310
214 215 218 219 221 224 226 227 227 228 229 230 234 238 243 247 249 247 244 241 240 239 239 240 241 242 245 247 249 251 251 250 250 250 253 260 266 266 264 264 263 263 263 264 266 267 268 266 265 266 268 267 266 267 268 267 265 268 273 278 282 281 278 278 280 283 286 286 284 283 282 286 288 282 279 281 275 275 287 295 299 306 307 301 300
215 216 218 219 221 225 229 230 230 230 230 229 230 234 239 245 248 247 245 242 242 242 242 242 242 242 243 245 248 254 257 258 257 256 254 259 265 268 268 267 267 267 266 264 264 264 266 268 269 272 274 274 273 273 272 271 270 273 277 280 281 279 276 275 278 283 289 291 287 282 281 287 289 280 277 277 272 278 290 295 296 303 306 300 300
217 219 222 223 223 225 229 233 233 232 231 231 231 233 236 240 245 248 247 245 244 243 243 244 245 246 246 246 247 251 256 259 261 262 261 261 263 266 268 269 270 270 269 268 268 268 267 268 270 273 275 277 276 275 272 269 266 268 272 275 276 275 272 273 277 282 287 288 283 274 275 284 287 278 276 278 274 279 287 291 294 302 305 305 310
219 219 221 224 225 225 227 230 233 233 232 232 234 236 238 240 243 245 247 246 246 244 244 244 246 247 249 250 251 253 256 258 260 262 263 262 262 263 265 266 267 267 265 265 268 272 273 273 274 275 277 277 276 275 273 271 267 264 261 261 263 266 268 270 275 280 282 279 275 268 268 275 278 275 274 276 272 274 279 284 292 298 299 305 313
227 224 223 224 225 225 225 227 230 233 233 234 235 238 240 242 243 243 244 245 246 246 246 246 246 248 249 251 252 254 256 258 259 261 262 262 262 262 262 263 264 264 264 263 262 266 271 275 275 276 278 279 278 276 274 273 271 266 260 259 260 261 262 265 271 277 279 277 273 268 264 265 267 268 271 273 270 269 270 276 284 292 294 300 307
234 230 227 226 225 226 227 228 232 234 234 235 237 240 242 242 242 242 244 245 246 247 247 248 248 249 251 252 252 253 256 258 260 261 261 262 262 262 263 263 263 264 265 264 261 259 262 267 271 272 272 274 276 277 277 276 273 267 263 262 262 259 258 262 266 268 272 276 276 269 263 261 260 262 265 267 271 274 270 269 276 285 290 294 298